| ID | Machine | Gebeurtenis | Tijd | Uren | Service | Status | USB ID | |
|---|---|---|---|---|---|---|---|---|
| 300063 | 100-069XAB-S5 | Engine Stopped | 24-07-2025 11:12:19 | 1134 | - | Niet ingesteld | 2592AF312D9 | |
| 300065 | 100-069XAB-S5 | Engine Start | 24-07-2025 11:12:10 | 1134 | - | Niet ingesteld | 2592AF312D9 | |
| 299171 | 100-069XAB-S5 | Engine Start | 19-07-2025 04:21:49 | 1055 | - | Niet ingesteld | 2592AF312D9 | |
| 299003 | 100-069XAB-S5 | Engine Start | 18-07-2025 11:27:30 | 1055 | - | Niet ingesteld | 2592AF312D9 | |
| 299002 | 100-069XAB-S5 | Engine Stopped | 18-07-2025 11:20:36 | 1055 | - | Niet ingesteld | 2592AF312D9 | |
| 298999 | 100-069XAB-S5 | Generator Over Current Warning | 18-07-2025 10:59:17 | 1055 | - | Niet ingesteld | 2592AF312D9 | |
| 298992 | 100-069XAB-S5 | Engine Stopped | 18-07-2025 10:57:43 | 1055 | - | Niet ingesteld | 2592AF312D9 | |
| 298993 | 100-069XAB-S5 | Generator Over Volts Warning | 18-07-2025 10:57:35 | 1055 | - | Niet ingesteld | 2592AF312D9 | |
| 298994 | 100-069XAB-S5 | Generator Over Current Warning | 18-07-2025 10:57:08 | 1055 | - | Niet ingesteld | 2592AF312D9 | |
| 298995 | 100-069XAB-S5 | Generator Over Current Warning | 18-07-2025 10:56:47 | 1055 | - | Niet ingesteld | 2592AF312D9 | |
| 298996 | 100-069XAB-S5 | Generator Over Current Warning | 18-07-2025 10:56:01 | 1055 | - | Niet ingesteld | 2592AF312D9 | |
| 298997 | 100-069XAB-S5 | Engine Start | 18-07-2025 10:55:34 | 1055 | - | Niet ingesteld | 2592AF312D9 | |
| 298865 | 100-069XAB-S5 | POWER DOOR OPEN Warning | 17-07-2025 17:38:01 | 1055 | - | Niet ingesteld | 2592AF312D9 | |
| 297085 | 100-069XAB-S5 | Engine Start | 14-07-2025 07:14:03 | 1054 | - | Niet ingesteld | 2592AF312D9 | |
| 296965 | 100-069XAB-S5 | POWER DOOR OPEN Warning | 12-07-2025 09:15:51 | 1054 | - | Niet ingesteld | 2592AF312D9 | |
| 296964 | 100-069XAB-S5 | Engine Stopped | 12-07-2025 09:14:05 | 1054 | - | Niet ingesteld | 2592AF312D9 | |
| 296962 | 100-069XAB-S5 | High Coolant Temp Warning | 12-07-2025 09:08:34 | 1054 | - | Niet ingesteld | 2592AF312D9 | |
| 296963 | 100-069XAB-S5 | Engine Start | 12-07-2025 09:08:24 | 1054 | - | Niet ingesteld | 2592AF312D9 | |
| 296959 | 100-069XAB-S5 | Engine Stopped | 12-07-2025 09:04:56 | 1054 | - | Niet ingesteld | 2592AF312D9 | |
| 296960 | 100-069XAB-S5 | High Coolant Temp Shutdown | 12-07-2025 09:04:49 | 1054 | - | Niet ingesteld | 2592AF312D9 | |
| 296961 | 100-069XAB-S5 | Engine Start | 12-07-2025 09:04:41 | 1054 | - | Niet ingesteld | 2592AF312D9 | |
| 296955 | 100-069XAB-S5 | High Coolant Temp Shutdown | 12-07-2025 09:02:29 | 1054 | - | Niet ingesteld | 2592AF312D9 | |
| 296956 | 100-069XAB-S5 | Engine Start | 12-07-2025 09:02:20 | 1054 | - | Niet ingesteld | 2592AF312D9 | |
| 296952 | 100-069XAB-S5 | Engine Stopped | 12-07-2025 09:00:19 | 1054 | - | Niet ingesteld | 2592AF312D9 | |
| 296953 | 100-069XAB-S5 | High Coolant Temp Shutdown | 12-07-2025 09:00:10 | 1054 | - | Niet ingesteld | 2592AF312D9 |